Theta_e
319 318 318 318 319 320 322 325 321 325 323 327 325 328 333 333 335 335 334 335 334 336 336 335 333 332 334 332 332 331 330 332 332 331 332 333 332 333 331 331 331 331 331 331 332 331 330 328 328
318 318 319 314 320 321 321 317 324 323 331 326 325 330 334 338 332 334 336 335 335 334 337 334 332 331 331 330 330 331 331 330 330 330 330 330 330 331 330 330 330 329 331 330 332 331 328 326 328
317 318 318 317 317 320 318 317 322 324 326 318 329 329 333 336 331 334 335 336 334 336 335 333 332 330 330 330 329 331 332 327 331 328 330 329 328 328 329 329 329 329 329 330 331 329 326 325 323
317 316 314 318 321 318 316 319 319 326 321 322 328 335 330 330 333 334 338 335 335 335 334 333 333 328 329 329 330 332 331 327 329 329 328 329 328 327 328 328 328 328 328 327 329 327 324 321 321
316 314 318 319 319 317 313 318 319 320 318 322 322 334 335 332 332 338 337 337 335 334 333 334 333 328 327 327 330 331 330 328 328 329 327 327 327 326 327 327 327 327 327 326 328 324 323 321 320
319 316 320 320 317 317 317 318 318 318 319 325 331 334 335 331 337 339 337 336 333 332 332 333 334 330 325 325 326 329 329 328 326 327 328 326 327 327 327 326 326 326 326 326 324 322 322 321 320
320 322 319 316 318 317 321 316 318 318 322 324 328 334 330 331 334 336 336 334 332 330 331 331 334 332 328 322 320 320 325 325 324 324 323 324 325 321 324 326 326 326 326 326 322 321 321 321 320
314 320 325 318 319 317 315 316 314 318 320 322 324 329 335 330 334 336 334 333 331 330 330 329 333 334 330 325 321 318 318 323 325 324 325 325 326 324 322 321 324 324 324 322 322 321 320 320 320
313 319 323 322 318 318 313 316 311 312 323 319 321 324 325 333 334 334 333 332 333 332 330 330 332 335 332 328 325 320 317 318 321 322 324 325 325 325 322 319 319 319 320 321 321 320 319 320 320
318 322 320 317 315 316 313 313 313 315 320 321 325 326 328 332 332 331 329 328 328 333 331 330 330 335 333 331 328 325 320 318 318 319 321 324 324 324 321 319 318 318 318 318 318 317 317 319 320
317 321 317 316 314 312 313 313 310 314 317 318 323 327 329 332 332 329 329 328 328 329 328 330 328 330 332 332 330 328 323 319 318 318 319 320 324 324 322 320 319 319 317 317 317 318 320 320 320
321 317 316 318 312 311 312 312 312 312 315 311 317 327 330 331 331 331 330 329 328 326 329 328 327 328 334 333 330 329 326 322 319 318 317 317 321 323 323 321 320 318 318 318 316 319 318 317 318
316 316 313 313 311 310 310 311 312 310 309 315 322 328 331 332 331 331 330 330 329 327 324 326 326 326 329 333 332 329 328 325 321 319 318 318 319 320 320 320 319 318 315 316 316 316 316 316 316
316 313 313 313 311 312 313 311 310 312 311 322 326 328 330 331 331 331 331 330 331 330 326 324 325 324 324 324 325 327 327 326 324 321 322 322 322 322 321 320 319 318 318 318 319 318 317 317 317
313 316 315 320 312 313 311 314 311 310 314 322 326 325 326 329 330 331 330 331 333 333 330 324 324 324 324 323 322 321 323 325 325 324 322 323 324 323 323 322 320 321 321 321 320 320 319 318 317
317 317 320 316 312 312 314 324 313 309 312 317 324 324 325 325 329 331 331 332 333 334 332 329 323 323 323 323 323 322 322 323 324 324 324 325 326 326 325 324 321 321 322 322 322 321 321 320 319
321 320 320 319 311 311 311 314 312 308 310 311 319 323 324 324 324 328 331 332 333 334 334 332 327 324 323 323 323 324 325 324 323 324 325 327 328 327 327 327 325 323 322 322 322 322 321 321 321
325 322 322 320 318 310 310 310 310 309 307 310 310 320 323 325 326 326 329 331 332 334 334 334 333 329 326 326 325 327 328 327 327 328 328 328 326 325 326 325 325 325 324 324 323 322 322 322 322
319 324 324 316 319 314 315 316 316 311 306 306 306 311 321 323 324 326 328 329 329 331 333 334 333 333 331 329 328 329 329 329 329 328 328 326 326 327 327 325 325 323 323 324 324 323 323 322 321
317 321 321 317 311 312 313 311 310 311 309 309 308 306 312 319 318 321 325 327 328 329 330 332 333 333 333 332 331 330 331 330 329 328 327 327 327 327 327 326 326 325 324 324 324 324 323 321 321
310 311 311 314 308 307 307 311 309 310 306 306 304 305 306 310 316 316 315 323 326 327 328 329 331 333 333 333 332 331 330 330 330 329 329 328 326 327 327 327 327 327 326 326 326 326 324 323 323
313 310 309 309 310 310 306 312 309 311 314 306 307 305 305 304 306 309 309 312 319 325 327 328 329 330 331 333 332 331 330 330 330 331 329 328 326 326 327 328 328 328 328 328 328 326 325 323 323
313 309 310 310 311 310 308 307 306 305 311 314 309 306 305 304 304 305 306 310 314 317 323 326 328 329 330 331 332 332 331 331 332 332 332 330 326 324 325 326 326 327 328 328 327 326 325 324 323
307 310 310 307 311 317 311 308 308 308 307 307 306 306 307 306 304 303 304 305 307 309 309 315 323 327 328 330 330 331 331 331 332 332 333 330 325 324 323 324 326 327 328 328 326 325 325 323 322
312 316 319 320 319 318 303 307 314 307 305 305 306 306 305 305 304 302 301 302 304 305 306 307 313 322 325 327 329 330 331 331 331 332 332 328 326 325 324 325 325 325 327 326 325 324 323 321 319
314 318 317 318 314 313 302 309 311 305 306 303 301 300 300 300 300 301 301 303 305 305 307 309 314 318 321 325 327 328 330 330 330 331 332 328 326 324 326 326 326 326 326 325 324 323 320 318 316
308 317 310 308 296 305 305 304 304 303 303 302 301 301 302 302 302 301 301 303 305 306 307 310 313 315 320 324 327 328 328 328 329 331 331 330 327 326 326 324 324 324 323 322 320 318 316 312 308
308 308 311 309 312 308 307 304 309 306 304 303 302 302 303 303 302 302 303 304 305 307 309 310 311 312 314 317 322 326 325 327 327 328 329 329 327 326 323 322 323 321 319 316 314 311 306 304 297
305 308 306 308 308 311 309 309 301 304 305 305 304 301 301 303 302 303 303 304 306 308 310 311 310 309 308 309 309 310 318 323 324 326 328 328 325 323 322 321 319 314 311 308 308 302 296 295 293
304 306 309 310 308 305 307 311 302 301 300 300 301 300 301 302 302 302 303 303 304 306 309 310 310 311 310 310 310 309 309 314 319 323 325 325 323 320 319 314 312 308 306 302 299 295 293 293 292
Wind_Speed
9 8 4 4 4 4 1 1 1 3 1 2 3 3 4 3 2 2 10 7 18 18 16 14 13 15 16 16 15 17 17 17 17 17 16 17 16 17 17 17 18 18 18 18 20 20 21 20 20
7 5 3 2 4 3 2 2 4 3 4 5 4 2 4 2 2 6 10 19 20 20 18 14 14 16 16 16 16 17 16 18 18 17 17 17 18 19 18 17 18 18 18 17 19 19 18 19 20
4 4 3 4 2 3 3 3 3 2 5 2 3 3 2 2 3 13 12 23 21 20 17 17 16 17 17 18 17 18 17 16 19 18 18 18 18 18 18 18 18 18 17 18 17 18 17 19 19
2 5 4 4 2 1 2 2 4 6 2 2 3 5 1 1 12 9 22 23 22 21 19 18 17 17 18 19 19 17 17 16 19 18 17 17 18 17 18 18 18 17 15 14 16 16 15 18 18
5 3 4 3 2 2 2 2 6 4 3 2 1 3 3 5 4 21 25 23 22 21 19 19 17 18 19 18 19 19 17 16 16 17 17 17 16 16 16 16 16 15 14 14 16 14 14 16 17
3 2 4 2 3 2 2 4 6 3 3 2 4 4 4 2 13 23 25 23 21 22 20 18 17 18 18 17 16 16 16 15 13 16 16 15 14 14 15 14 14 13 13 14 14 14 14 14 15
4 3 4 3 2 4 2 6 4 4 5 3 7 4 0 5 12 24 24 21 20 19 20 18 17 16 17 17 17 15 15 15 14 14 15 13 16 12 14 13 13 12 12 13 14 14 13 12 13
3 4 2 3 1 3 2 4 1 3 3 3 3 4 4 7 19 22 21 20 18 18 18 18 18 16 15 16 15 14 15 15 14 15 15 15 14 11 12 12 11 12 11 11 11 10 10 10 10
3 3 3 4 5 1 1 2 3 1 5 1 3 3 1 22 25 21 16 17 16 17 18 18 19 17 14 14 15 14 14 13 12 13 12 12 12 11 10 10 11 11 10 9 8 7 7 8 9
4 3 8 4 3 2 1 3 5 3 3 3 2 1 10 26 24 21 17 17 17 18 20 20 20 19 16 13 12 12 13 13 13 13 12 12 11 10 9 10 9 9 8 7 6 6 6 6 7
4 5 5 4 3 1 1 2 3 5 3 7 8 7 17 20 21 20 18 18 18 18 22 22 21 21 19 17 14 12 12 12 12 11 11 11 10 9 8 7 7 6 5 5 4 5 5 5 5
4 5 6 4 4 3 3 0 1 6 5 2 7 14 19 20 22 24 22 20 20 22 22 23 21 21 21 18 16 13 12 11 11 11 10 9 9 8 6 5 4 3 2 2 2 2 3 4 4
2 3 6 7 4 4 3 3 3 7 8 3 10 15 18 20 21 20 20 19 20 24 24 25 24 22 22 19 18 17 15 12 10 11 10 9 8 7 5 4 3 1 1 2 2 1 1 3 3
4 5 2 4 3 0 1 1 3 6 4 5 8 13 13 20 23 19 20 21 26 26 25 24 25 24 22 22 20 17 17 15 13 11 10 9 7 6 4 3 2 2 1 1 1 1 2 4 4
4 4 3 3 1 4 5 3 4 4 1 4 8 7 8 14 18 25 25 25 30 29 26 26 25 24 24 22 19 17 17 17 15 13 12 10 7 7 6 4 3 2 2 1 2 2 3 4 5
4 1 2 1 6 2 6 11 7 5 5 9 8 8 9 10 22 22 25 28 29 29 28 27 27 27 25 24 22 19 17 17 16 15 13 12 9 8 7 6 5 4 4 4 4 4 4 5 6
2 3 6 3 6 3 4 3 6 4 6 8 8 8 9 9 13 24 29 31 32 31 29 28 28 29 27 25 23 21 19 19 17 16 14 12 10 9 8 6 6 6 6 6 6 6 6 6 7
6 4 0 4 2 1 2 6 9 4 6 10 7 7 10 12 18 26 30 32 31 32 31 29 29 30 29 27 25 23 20 20 18 17 15 13 12 12 11 9 6 7 7 8 8 7 8 9 10
6 3 6 0 4 3 6 11 16 11 5 8 10 9 12 14 13 21 27 30 30 31 32 33 33 32 31 30 27 25 25 23 20 19 17 16 15 14 14 12 11 8 8 9 9 9 11 11 8
7 4 2 3 3 4 6 10 13 10 9 11 13 10 13 8 7 15 26 29 33 34 37 35 36 35 34 34 33 29 29 25 23 21 18 18 18 17 17 17 15 14 14 13 12 12 12 9 6
4 7 5 4 3 2 4 10 10 10 9 9 8 9 7 13 14 12 20 30 32 36 38 38 39 39 37 37 34 29 22 19 24 25 25 20 18 20 19 19 18 18 19 18 17 16 14 10 9
6 7 6 4 2 3 1 6 6 8 18 10 11 9 12 12 10 10 19 27 34 38 38 40 38 39 38 38 36 34 29 24 28 28 25 21 18 20 21 20 20 19 20 19 19 17 15 14 12
5 7 8 5 4 4 4 3 7 5 13 18 16 11 14 14 13 16 21 32 38 35 37 39 39 39 38 39 37 37 30 31 30 29 27 21 16 18 18 18 18 19 19 18 16 13 10 9 8
8 6 8 5 3 5 5 6 6 6 8 6 7 14 16 15 13 16 18 25 29 29 33 36 39 41 41 40 39 39 34 32 31 31 25 23 20 19 18 17 16 14 14 13 11 9 9 8 6
7 13 2 2 3 8 3 6 21 6 5 6 9 10 11 12 10 11 10 18 28 31 31 33 37 39 40 40 39 40 39 37 36 34 29 26 25 22 19 16 15 14 13 12 12 12 11 9 8
10 9 5 6 5 3 1 9 9 7 10 7 8 9 7 9 7 9 12 20 27 31 30 31 33 35 36 35 33 35 37 36 35 33 30 28 29 24 20 17 13 13 15 15 15 14 12 11 9
5 9 6 5 2 2 5 7 10 9 10 7 10 8 12 10 9 10 9 16 22 28 29 31 30 30 31 34 32 29 28 31 33 30 27 24 23 24 20 17 15 17 16 16 16 14 12 11 10
12 11 5 3 5 5 5 5 9 3 8 10 9 10 14 9 6 6 6 13 19 22 21 22 24 25 25 27 30 32 29 28 29 28 27 25 25 25 21 20 20 19 18 17 15 15 13 13 13
4 9 5 6 6 6 2 6 8 9 10 9 10 7 8 7 9 8 7 12 14 16 18 20 20 22 23 23 24 25 28 26 26 28 27 27 28 26 25 24 23 20 19 17 16 16 17 15 14
7 9 17 5 6 2 2 10 6 8 7 7 9 9 8 7 7 6 10 15 16 15 15 17 18 19 20 21 22 24 25 27 26 26 29 30 31 29 27 25 24 22 20 18 18 19 16 14 13
Wind_Direction
334 333 317 19 54 65 78 188 120 120 159 309 86 137 154 90 162 152 151 152 150 138 137 133 123 118 117 116 109 100 94 103 107 106 107 94 92 94 96 97 98 96 92 89 87 84 80 74 71
334 329 22 71 83 69 273 267 177 163 140 129 79 68 47 84 87 134 141 150 149 142 140 136 126 123 116 114 114 110 106 98 103 103 101 97 96 99 101 103 102 97 95 90 89 85 81 75 75
319 15 75 84 95 151 200 214 160 101 144 88 101 44 121 138 132 152 147 153 153 146 147 139 133 127 121 120 118 117 118 103 107 105 103 102 101 100 99 100 101 98 94 92 90 86 83 79 74
308 32 45 80 138 241 196 184 154 131 257 109 128 79 62 269 160 170 150 156 155 150 150 146 137 132 128 128 126 116 118 107 115 108 107 106 104 103 104 104 103 103 99 93 93 93 83 80 73
37 61 64 77 299 254 254 183 144 146 118 111 118 158 82 142 181 152 153 159 158 154 153 147 143 138 133 131 135 129 132 117 119 115 113 110 108 105 104 106 106 105 101 95 96 98 89 84 71
25 92 78 130 277 277 252 180 132 121 118 135 95 116 158 188 160 162 159 161 162 154 154 150 153 146 138 135 137 142 139 131 121 117 119 116 114 110 104 104 107 108 105 101 99 98 94 84 70
104 41 146 127 273 310 196 153 147 159 142 213 153 127 256 178 175 169 163 164 164 160 159 156 160 158 147 141 140 143 141 140 128 114 118 120 114 106 114 109 107 113 110 103 99 95 90 83 70
100 81 147 140 171 279 147 169 146 157 188 119 147 185 180 193 172 171 167 167 168 166 164 161 165 168 158 148 141 139 141 136 131 128 126 122 123 125 108 112 116 116 114 114 106 96 84 79 72
164 86 187 211 161 317 50 189 1 98 114 234 160 172 331 158 162 165 164 163 172 174 168 168 170 174 168 158 152 145 140 141 143 138 135 138 136 125 108 113 115 118 120 116 109 95 82 71 65
117 148 209 166 169 177 325 180 173 142 111 232 165 38 147 153 161 167 175 176 176 179 178 176 177 175 175 172 161 153 149 150 148 147 145 146 144 136 121 118 118 116 123 120 110 95 80 71 61
185 180 191 198 143 22 36 103 175 131 217 214 196 161 165 165 168 178 185 188 184 186 183 182 183 179 182 183 175 170 165 160 157 156 156 152 154 152 140 130 122 123 126 134 124 106 70 60 55
162 184 159 144 150 112 332 24 256 194 230 304 189 156 168 178 183 184 185 190 193 189 191 188 187 185 183 185 187 183 180 175 169 165 164 164 160 160 160 152 130 107 117 128 126 113 50 40 34
242 195 184 144 145 108 136 283 244 257 244 3 141 154 179 187 192 192 189 193 202 199 200 193 191 194 190 188 193 191 189 189 185 181 177 171 170 171 172 176 172 139 96 100 141 145 343 8 20
212 173 179 138 128 83 44 340 74 286 156 143 164 180 185 192 191 188 199 195 205 202 204 201 198 198 201 201 197 202 197 194 197 196 190 185 189 189 191 202 198 195 143 134 74 1 342 351 358
131 158 24 295 120 176 152 320 220 282 322 202 201 193 193 198 185 197 202 198 205 204 205 207 207 206 207 212 209 205 204 202 206 204 205 206 209 210 212 218 222 220 231 253 288 317 322 332 335
110 72 162 207 157 238 138 260 259 224 179 238 227 205 197 202 204 203 207 209 211 208 208 210 211 211 212 214 219 215 212 210 212 213 213 216 215 217 223 235 238 242 248 258 269 285 298 314 318
350 172 205 284 215 137 180 265 238 158 208 244 227 231 214 209 220 213 215 216 215 215 213 212 214 216 216 218 220 223 220 217 217 219 219 219 221 229 236 248 244 245 259 266 270 283 291 295 297
187 192 287 206 264 189 121 269 275 238 199 232 259 228 228 222 218 216 216 220 221 220 219 218 217 219 219 219 220 223 222 224 222 219 221 220 227 230 231 235 250 256 261 272 264 266 275 284 292
143 155 201 280 245 232 230 246 247 245 225 248 237 232 228 230 237 219 221 220 222 223 224 222 219 221 219 218 217 221 220 222 227 227 230 233 233 234 234 235 231 237 246 261 262 260 268 281 286
140 132 202 293 269 184 293 261 261 243 234 229 234 222 232 221 214 217 216 218 220 222 222 223 226 222 222 224 223 219 222 227 233 234 227 236 236 234 235 235 235 235 240 247 253 253 259 265 292
156 148 160 210 295 221 286 277 242 242 231 236 237 226 232 228 218 225 214 214 216 222 224 223 226 227 224 226 225 223 223 227 225 224 227 227 237 236 236 237 237 240 241 244 252 252 250 255 271
185 166 146 117 47 261 107 285 265 248 237 222 236 220 230 230 235 216 213 218 218 221 226 227 226 229 229 228 221 218 211 209 224 232 235 228 237 246 243 241 243 247 248 250 254 257 260 250 252
202 149 175 146 82 359 207 283 270 271 245 235 224 225 230 225 219 234 217 221 221 221 222 226 227 228 229 227 223 222 215 220 227 231 234 230 227 241 243 243 242 244 244 247 249 251 243 235 238
133 76 37 43 82 270 212 204 240 219 228 237 225 228 225 228 216 231 237 230 231 223 224 225 224 226 226 227 224 223 219 219 224 228 230 220 224 229 226 233 235 234 235 231 223 211 209 212 216
129 152 145 162 202 238 293 172 247 255 269 242 238 246 229 227 225 213 201 210 223 219 218 218 219 220 223 225 224 224 225 225 225 230 223 210 216 218 217 219 226 224 218 203 193 190 185 185 173
164 172 164 170 201 245 141 222 246 236 254 244 243 252 286 267 238 234 226 219 224 221 214 210 211 216 221 220 218 222 224 224 225 227 225 215 214 213 206 203 211 210 193 192 181 173 172 167 159
180 202 159 85 81 52 217 286 295 257 278 276 251 263 261 249 235 236 235 234 227 220 214 209 208 212 215 219 215 213 215 219 225 225 222 219 215 200 196 193 197 193 182 179 170 168 163 157 145
183 149 162 200 205 245 245 258 233 319 260 270 283 248 244 266 262 260 235 222 219 219 212 208 208 207 207 209 216 216 215 219 225 223 217 212 200 191 188 183 179 176 173 167 163 154 149 149 136
135 186 192 162 180 190 251 249 196 223 226 236 262 295 289 259 230 209 198 202 193 199 200 200 204 202 202 205 208 211 211 212 218 217 210 198 188 184 177 178 174 173 169 162 159 148 143 140 130
185 190 199 185 220 292 126 269 178 231 240 235 275 280 270 253 258 221 186 179 179 189 201 203 199 201 203 205 209 210 208 205 205 207 193 187 179 176 174 172 168 165 160 157 153 146 141 135 136